DELTA 1 DEB, 21285

Orbit data source: Space-Track

DELTA 1 DEB, 21285 is space debris in SSO originally from a launch on Thu, 12 Jun 1975 UTC launched from the Air Force Western Test Range (AFWTR). Debris objects in space refer to the collection of defunct objects orbiting the Earth. Examples of debris include non-operational satellites, rocket bodies, and fragments generated from explosions, collisions, or faulty payload assembly.

Loading next visibility...
Identifier
21285, 1975-052W
Orbit
SSO
Country
Flag of USUS
Related business
Manufacturer
Unknown
Mission
Spacecraft
Bus & Motor
Unknown
Mass
Unknown
Launch date (UTC)
1975-06-12 (51 years ago)
Launch vehicle
Unknown
Launch site
Air Force Western Test Range (AFWTR)
Object type
Payload
Rocket body
Debris
Shape & HBR
Unknown shape, 0.5 m
Radar Cross Section
Medium (>0.1 m² and <1 m²)

Expand to show TLE details & history
Last TLE update: 11 hours ago

TLE from 11 hours ago
0 DELTA 1 DEB
1 21285U 75052W   25351.20699153  .00000010  00000-0  94430-4 0  9993
2 21285  99.6541 204.7237 0020163  54.6626  56.7239 13.41259706694144
Epoch: 2025-12-17T04:58Z
TLE epoch observation values (Epoch: 2025-12-17T04:58:04.068Z)
Latitude
66.53696°
Longitude
-112.92463°
Altitude
1,107.757 km
Speed
7.309 km/s
True Right ascension
03h 10m 41s
True Declination
66° 25' 01"
Sunlit
Object was in full shadow at epoch
Visualization orbit readout
Latitude
Unknown
Longitude
Unknown
Altitude
Unknown
Speed
Unknown
Apparent Right ascension
Unknown
Apparent Declination
Unknown
Sunlit
N/A
Visualization observer readout
Local Sidereal Time
14:51:39
Azimuth
Unknown
Elevation
Unknown
Doppler factor
Unknown
Orbital elements
Apogee altitude
1,116.983 km
Perigee altitude
1,086.819 km
Semi-major axis
7,480.038 km
Eccentricity
0.00202
Inclination
99.6541°
RAAN
204.7237°
Arg. of periapsis
54.6626°
True anomaly
56.91733°
Mean anomaly
56.7239°
Eccentric anomaly
56.82059°
Mean motion
3.35496 °/min
Orbital period
107.3 mins
BSTAR
0.00009443
Loading maneuver chart data...
Computing Atmospheric mass density...
Loading historical data...
Loading historical data...
Loading historical data...
Loading historical data...
Loading historical data...
Loading historical data...
Loading historical data...

Documentation

Showing up to 5 results
|